Time,TemperatureF,DewpointF,PressureIn,WindDirection,WindDirectionDegrees,WindSpeedMPH,WindSpeedGustMPH,Humidity,HourlyPrecipIn,Conditions,Clouds,dailyrainin,SoftwareType,DateUTC
2013-04-16 00:02:00,36.0,27.0,-100.00,WSW,255,9.0,14.0,70,-99.99,,,-99.99,,2013-04-16 05:02:00,
2013-04-16 00:22:00,35.0,27.0,-100.00,WSW,245,6.0,10.0,75,-99.99,,,-99.99,,2013-04-16 05:22:00,
2013-04-16 00:32:00,35.0,27.0,-100.00,WSW,245,6.0,10.0,75,-99.99,,,-99.99,,2013-04-16 05:32:00,
2013-04-16 00:42:00,35.0,27.0,-100.00,WSW,245,6.0,10.0,75,-99.99,,,-99.99,,2013-04-16 05:42:00,
2013-04-16 00:52:00,35.0,27.0,-100.00,WSW,245,6.0,10.0,75,-99.99,,,-99.99,,2013-04-16 05:52:00,
2013-04-16 01:02:00,35.0,27.0,-100.00,WSW,245,6.0,10.0,75,-99.99,,,-99.99,,2013-04-16 06:02:00,
2013-04-16 01:22:00,35.0,29.0,-100.00,West,260,6.0,11.0,78,-99.99,,,-99.99,,2013-04-16 06:22:00,
2013-04-16 01:32:00,35.0,29.0,-100.00,West,260,6.0,11.0,78,-99.99,,,-99.99,,2013-04-16 06:32:00,
2013-04-16 01:42:00,35.0,29.0,-100.00,West,260,6.0,11.0,78,-99.99,,,-99.99,,2013-04-16 06:42:00,
2013-04-16 01:52:00,35.0,29.0,-100.00,West,260,6.0,11.0,78,-99.99,,,-99.99,,2013-04-16 06:52:00,
2013-04-16 02:02:00,35.0,29.0,-100.00,West,270,6.0,11.0,78,-99.99,,,-99.99,,2013-04-16 07:02:00,
2013-04-16 02:22:00,35.0,29.0,-100.00,West,270,6.0,11.0,78,-99.99,,,-99.99,,2013-04-16 07:22:00,
2013-04-16 02:32:00,35.0,29.0,-100.00,West,270,6.0,11.0,78,-99.99,,,-99.99,,2013-04-16 07:32:00,
2013-04-16 02:42:00,35.0,29.0,-100.00,West,270,6.0,11.0,78,-99.99,,,-99.99,,2013-04-16 07:42:00,
2013-04-16 02:53:00,35.0,29.0,-100.00,West,270,6.0,11.0,78,-99.99,,,-99.99,,2013-04-16 07:53:00,
2013-04-16 03:02:00,35.0,29.0,-100.00,WNW,290,4.0,11.0,80,-99.99,,,-99.99,,2013-04-16 08:02:00,
2013-04-16 03:22:00,35.0,29.0,-100.00,WNW,290,4.0,11.0,80,-99.99,,,-99.99,,2013-04-16 08:22:00,
2013-04-16 03:32:00,35.0,29.0,-100.00,WNW,290,4.0,11.0,80,-99.99,,,-99.99,,2013-04-16 08:32:00,
2013-04-16 03:42:00,35.0,29.0,-100.00,WNW,290,4.0,11.0,80,-99.99,,,-99.99,,2013-04-16 08:42:00,
2013-04-16 03:52:00,35.0,29.0,-100.00,WNW,290,4.0,11.0,80,-99.99,,,-99.99,,2013-04-16 08:52:00,
2013-04-16 04:02:00,35.0,29.0,-100.00,WSW,245,4.0,9.0,81,-99.99,,,-99.99,,2013-04-16 09:02:00,
2013-04-16 04:22:00,35.0,29.0,-100.00,WSW,245,4.0,9.0,81,-99.99,,,-99.99,,2013-04-16 09:22:00,
2013-04-16 04:33:00,35.0,29.0,-100.00,WSW,245,4.0,9.0,81,-99.99,,,-99.99,,2013-04-16 09:33:00,
2013-04-16 04:43:00,35.0,29.0,-100.00,WSW,245,4.0,9.0,81,-99.99,,,-99.99,,2013-04-16 09:43:00,
2013-04-16 04:53:00,35.0,29.0,-100.00,WSW,245,4.0,9.0,81,-99.99,,,-99.99,,2013-04-16 09:53:00,
2013-04-16 05:02:00,34.0,29.0,-100.00,West,275,3.0,9.0,82,-99.99,,,-99.99,,2013-04-16 10:02:00,
2013-04-16 05:23:00,34.0,29.0,-100.00,West,275,3.0,9.0,82,-99.99,,,-99.99,,2013-04-16 10:23:00,
2013-04-16 05:33:00,34.0,29.0,-100.00,West,275,3.0,9.0,82,-99.99,,,-99.99,,2013-04-16 10:33:00,
2013-04-16 05:43:00,34.0,29.0,-100.00,West,275,3.0,9.0,82,-99.99,,,-99.99,,2013-04-16 10:43:00,
2013-04-16 05:53:00,34.0,29.0,-100.00,West,275,3.0,9.0,82,-99.99,,,-99.99,,2013-04-16 10:53:00,
2013-04-16 06:22:00,35.0,29.0,-100.00,WNW,295,5.0,9.0,79,-99.99,,,-99.99,,2013-04-16 11:22:00,
2013-04-16 06:32:00,35.0,29.0,-100.00,WNW,295,5.0,9.0,79,-99.99,,,-99.99,,2013-04-16 11:32:00,
2013-04-16 06:42:00,35.0,29.0,-100.00,WNW,295,5.0,9.0,79,-99.99,,,-99.99,,2013-04-16 11:42:00,
2013-04-16 06:53:00,35.0,29.0,-100.00,WNW,295,5.0,9.0,79,-99.99,,,-99.99,,2013-04-16 11:53:00,
2013-04-16 07:02:00,35.0,29.0,-100.00,WNW,295,5.0,9.0,79,-99.99,,,-99.99,,2013-04-16 12:02:00,
2013-04-16 07:22:00,35.0,28.0,-100.00,NW,305,7.0,17.0,77,-99.99,,,-99.99,,2013-04-16 12:22:00,
2013-04-16 07:32:00,35.0,28.0,-100.00,NW,305,7.0,17.0,77,-99.99,,,-99.99,,2013-04-16 12:32:00,
2013-04-16 07:42:00,35.0,28.0,-100.00,NW,305,7.0,17.0,77,-99.99,,,-99.99,,2013-04-16 12:42:00,
2013-04-16 07:52:00,35.0,28.0,-100.00,NW,305,7.0,17.0,77,-99.99,,,-99.99,,2013-04-16 12:52:00,
2013-04-16 08:22:00,35.0,28.0,-100.00,NW,315,4.0,10.0,76,-99.99,,,-99.99,,2013-04-16 13:22:00,
2013-04-16 08:32:00,35.0,28.0,-100.00,NW,315,4.0,10.0,76,-99.99,,,-99.99,,2013-04-16 13:32:00,
2013-04-16 08:42:00,35.0,28.0,-100.00,NW,315,4.0,10.0,76,-99.99,,,-99.99,,2013-04-16 13:42:00,
2013-04-16 08:52:00,35.0,28.0,-100.00,NW,315,4.0,10.0,76,-99.99,,,-99.99,,2013-04-16 13:52:00,
2013-04-16 09:02:00,35.0,28.0,-100.00,NW,315,4.0,10.0,76,-99.99,,,-99.99,,2013-04-16 14:02:00,
2013-04-16 09:22:00,36.0,28.0,-100.00,WNW,290,7.0,15.0,74,-99.99,,,-99.99,,2013-04-16 14:22:00,
2013-04-16 09:32:00,36.0,28.0,-100.00,WNW,290,7.0,15.0,74,-99.99,,,-99.99,,2013-04-16 14:32:00,
2013-04-16 09:42:00,36.0,28.0,-100.00,WNW,290,7.0,15.0,74,-99.99,,,-99.99,,2013-04-16 14:42:00,
2013-04-16 09:52:00,36.0,28.0,-100.00,WNW,290,7.0,15.0,74,-99.99,,,-99.99,,2013-04-16 14:52:00,
2013-04-16 10:02:00,36.0,28.0,-100.00,WNW,290,7.0,15.0,74,-99.99,,,-99.99,,2013-04-16 15:02:00,
2013-04-16 10:22:00,37.0,29.0,-100.00,WNW,300,3.0,13.0,72,-99.99,,,-99.99,,2013-04-16 15:22:00,
2013-04-16 10:33:00,37.0,29.0,-100.00,WNW,300,3.0,13.0,72,-99.99,,,-99.99,,2013-04-16 15:33:00,
2013-04-16 10:43:00,37.0,29.0,-100.00,WNW,300,3.0,13.0,72,-99.99,,,-99.99,,2013-04-16 15:43:00,
2013-04-16 10:53:00,37.0,29.0,-100.00,WNW,300,3.0,13.0,72,-99.99,,,-99.99,,2013-04-16 15:53:00,
2013-04-16 12:22:00,39.0,28.0,-100.00,NW,325,6.0,11.0,64,-99.99,,,-99.99,,2013-04-16 17:22:00,
2013-04-16 12:33:00,39.0,28.0,-100.00,NW,325,6.0,11.0,64,-99.99,,,-99.99,,2013-04-16 17:33:00,
2013-04-16 12:43:00,39.0,28.0,-100.00,NW,325,6.0,11.0,64,-99.99,,,-99.99,,2013-04-16 17:43:00,
2013-04-16 12:53:00,39.0,28.0,-100.00,NW,325,6.0,11.0,64,-99.99,,,-99.99,,2013-04-16 17:53:00,
2013-04-16 13:02:00,39.0,28.0,-100.00,NW,325,6.0,11.0,64,-99.99,,,-99.99,,2013-04-16 18:02:00,
2013-04-16 13:22:00,42.0,27.0,-100.00,NW,320,5.0,14.0,57,-99.99,,,-99.99,,2013-04-16 18:22:00,
2013-04-16 13:32:00,42.0,27.0,-100.00,NW,320,5.0,14.0,57,-99.99,,,-99.99,,2013-04-16 18:32:00,
2013-04-16 13:43:00,42.0,27.0,-100.00,NW,320,5.0,14.0,57,-99.99,,,-99.99,,2013-04-16 18:43:00,
2013-04-16 13:52:00,42.0,27.0,-100.00,NW,320,5.0,14.0,57,-99.99,,,-99.99,,2013-04-16 18:52:00,
2013-04-16 14:02:00,44.0,27.0,-100.00,NW,320,7.0,12.0,52,-99.99,,,-99.99,,2013-04-16 19:02:00,
2013-04-16 14:22:00,44.0,27.0,-100.00,NW,320,7.0,12.0,52,-99.99,,,-99.99,,2013-04-16 19:22:00,
2013-04-16 14:32:00,44.0,27.0,-100.00,NW,320,7.0,12.0,52,-99.99,,,-99.99,,2013-04-16 19:32:00,
2013-04-16 14:42:00,44.0,27.0,-100.00,NW,320,7.0,12.0,52,-99.99,,,-99.99,,2013-04-16 19:42:00,
2013-04-16 14:52:00,44.0,27.0,-100.00,NW,320,7.0,12.0,52,-99.99,,,-99.99,,2013-04-16 19:52:00,
2013-04-16 15:02:00,45.0,26.0,-100.00,NW,305,6.0,8.0,48,-99.99,,,-99.99,,2013-04-16 20:02:00,
2013-04-16 15:22:00,45.0,26.0,-100.00,NW,305,6.0,8.0,48,-99.99,,,-99.99,,2013-04-16 20:22:00,
2013-04-16 15:32:00,45.0,26.0,-100.00,NW,305,6.0,8.0,48,-99.99,,,-99.99,,2013-04-16 20:32:00,
2013-04-16 15:42:00,45.0,26.0,-100.00,NW,305,6.0,8.0,48,-99.99,,,-99.99,,2013-04-16 20:42:00,
2013-04-16 15:52:00,45.0,26.0,-100.00,NW,305,6.0,8.0,48,-99.99,,,-99.99,,2013-04-16 20:52:00,
2013-04-16 16:22:00,48.0,27.0,-100.00,NW,305,5.0,11.0,45,-99.99,,,-99.99,,2013-04-16 21:22:00,
2013-04-16 16:33:00,48.0,27.0,-100.00,NW,305,5.0,11.0,45,-99.99,,,-99.99,,2013-04-16 21:33:00,
2013-04-16 16:43:00,48.0,27.0,-100.00,NW,305,5.0,11.0,45,-99.99,,,-99.99,,2013-04-16 21:43:00,
2013-04-16 16:53:00,48.0,27.0,-100.00,NW,305,5.0,11.0,45,-99.99,,,-99.99,,2013-04-16 21:53:00,
2013-04-16 17:02:00,48.0,27.0,-100.00,NW,305,5.0,11.0,45,-99.99,,,-99.99,,2013-04-16 22:02:00,
2013-04-16 17:22:00,47.0,27.0,-100.00,NNE,30,1.0,10.0,46,-99.99,,,-99.99,,2013-04-16 22:22:00,
2013-04-16 17:33:00,47.0,27.0,-100.00,NNE,30,1.0,10.0,46,-99.99,,,-99.99,,2013-04-16 22:33:00,
2013-04-16 17:43:00,47.0,27.0,-100.00,NNE,30,1.0,10.0,46,-99.99,,,-99.99,,2013-04-16 22:43:00,
2013-04-16 17:52:00,47.0,27.0,-100.00,NNE,30,1.0,10.0,46,-99.99,,,-99.99,,2013-04-16 22:52:00,
2013-04-16 18:02:00,47.0,27.0,-100.00,NNE,30,1.0,10.0,46,-99.99,,,-99.99,,2013-04-16 23:02:00,
2013-04-16 18:22:00,44.0,25.0,-100.00,North,350,1.0,9.0,48,-99.99,,,-99.99,,2013-04-16 23:22:00,
2013-04-16 18:32:00,44.0,25.0,-100.00,North,350,1.0,9.0,48,-99.99,,,-99.99,,2013-04-16 23:32:00,
2013-04-16 18:43:00,44.0,25.0,-100.00,North,350,1.0,9.0,48,-99.99,,,-99.99,,2013-04-16 23:43:00,
2013-04-16 18:52:00,44.0,25.0,-100.00,North,350,1.0,9.0,48,-99.99,,,-99.99,,2013-04-16 23:52:00,
2013-04-16 19:02:00,44.0,25.0,-100.00,North,350,1.0,9.0,48,-99.99,,,-99.99,,2013-04-17 00:02:00,
2013-04-16 19:22:00,42.0,25.0,-100.00,NNE,20,1.0,5.0,51,-99.99,,,-99.99,,2013-04-17 00:22:00,
2013-04-16 19:32:00,42.0,25.0,-100.00,NNE,20,1.0,5.0,51,-99.99,,,-99.99,,2013-04-17 00:32:00,
2013-04-16 19:42:00,42.0,25.0,-100.00,NNE,20,1.0,5.0,51,-99.99,,,-99.99,,2013-04-17 00:42:00,
2013-04-16 19:52:00,42.0,25.0,-100.00,NNE,20,1.0,5.0,51,-99.99,,,-99.99,,2013-04-17 00:52:00,
2013-04-16 20:22:00,38.0,25.0,-100.00,NNE,15,0.0,1.0,58,-99.99,,,-99.99,,2013-04-17 01:22:00,
2013-04-16 20:32:00,38.0,25.0,-100.00,NNE,15,0.0,1.0,58,-99.99,,,-99.99,,2013-04-17 01:32:00,
2013-04-16 20:42:00,38.0,25.0,-100.00,NNE,15,0.0,1.0,58,-99.99,,,-99.99,,2013-04-17 01:42:00,
2013-04-16 20:52:00,38.0,25.0,-100.00,NNE,15,0.0,1.0,58,-99.99,,,-99.99,,2013-04-17 01:52:00,
2013-04-16 21:02:00,38.0,25.0,-100.00,NNE,15,0.0,1.0,58,-99.99,,,-99.99,,2013-04-17 02:02:00,
2013-04-16 21:22:00,35.0,26.0,-100.00,ESE,120,0.0,1.0,71,-99.99,,,-99.99,,2013-04-17 02:22:00,
2013-04-16 21:32:00,35.0,26.0,-100.00,ESE,120,0.0,1.0,71,-99.99,,,-99.99,,2013-04-17 02:32:00,
2013-04-16 21:42:00,35.0,26.0,-100.00,ESE,120,0.0,1.0,71,-99.99,,,-99.99,,2013-04-17 02:42:00,
2013-04-16 21:52:00,35.0,26.0,-100.00,ESE,120,0.0,1.0,71,-99.99,,,-99.99,,2013-04-17 02:52:00,
2013-04-16 22:02:00,35.0,26.0,-100.00,ESE,120,0.0,1.0,71,-99.99,,,-99.99,,2013-04-17 03:02:00,
2013-04-16 22:03:00,32.0,27.0,-100.00,SE,135,0.0,1.0,79,-99.99,,,-99.99,,2013-04-17 03:03:00,
2013-04-16 22:22:00,32.0,27.0,-100.00,SE,135,0.0,1.0,79,-99.99,,,-99.99,,2013-04-17 03:22:00,
2013-04-16 22:33:00,32.0,27.0,-100.00,SE,135,0.0,1.0,79,-99.99,,,-99.99,,2013-04-17 03:33:00,
2013-04-16 22:42:00,32.0,27.0,-100.00,SE,135,0.0,1.0,79,-99.99,,,-99.99,,2013-04-17 03:42:00,
2013-04-16 22:53:00,32.0,27.0,-100.00,SE,135,0.0,1.0,79,-99.99,,,-99.99,,2013-04-17 03:53:00,
2013-04-16 23:23:00,30.0,27.0,-100.00,SE,145,0.0,1.0,87,-99.99,,,-99.99,,2013-04-17 04:23:00,
2013-04-16 23:33:00,30.0,27.0,-100.00,SE,145,0.0,1.0,87,-99.99,,,-99.99,,2013-04-17 04:33:00,
2013-04-16 23:42:00,30.0,27.0,-100.00,SE,145,0.0,1.0,87,-99.99,,,-99.99,,2013-04-17 04:42:00,
2013-04-16 23:52:00,30.0,27.0,-100.00,SE,145,0.0,1.0,87,-99.99,,,-99.99,,2013-04-17 04:52:00,